TimeCDT,TemperatureF,Dew PointF,Humidity,Sea Level PressureIn,VisibilityMPH,Wind Direction,Wind SpeedMPH,Gust SpeedMPH,PrecipitationIn,Events,Conditions,WindDirDegrees,DateUTC
12:11 AM,39.2,33.8,81,30.33,10.0,ESE,4.6,-,N/A,,Overcast,120,2012-10-07 05:11:00
12:53 AM,39.0,33.1,79,30.33,10.0,ESE,3.5,-,N/A,,Overcast,120,2012-10-07 05:53:00
1:53 AM,39.0,33.1,79,30.33,10.0,ESE,5.8,-,N/A,,Overcast,110,2012-10-07 06:53:00
2:20 AM,39.2,33.8,81,30.33,10.0,ESE,5.8,-,N/A,,Overcast,110,2012-10-07 07:20:00
2:32 AM,37.4,33.8,87,30.32,10.0,SE,8.1,-,N/A,,Overcast,130,2012-10-07 07:32:00
2:53 AM,37.9,33.1,83,30.33,10.0,SE,5.8,-,N/A,,Overcast,140,2012-10-07 07:53:00
3:35 AM,37.4,33.8,87,30.31,10.0,SE,5.8,-,N/A,,Overcast,130,2012-10-07 08:35:00
3:53 AM,37.9,33.1,83,30.32,10.0,SE,5.8,-,N/A,,Overcast,140,2012-10-07 08:53:00
4:53 AM,37.9,33.1,83,30.30,10.0,SSE,5.8,-,N/A,,Overcast,150,2012-10-07 09:53:00
5:53 AM,37.9,33.1,83,30.29,10.0,South,4.6,-,N/A,,Overcast,170,2012-10-07 10:53:00
6:53 AM,39.0,33.1,79,30.29,10.0,South,4.6,-,N/A,,Overcast,180,2012-10-07 11:53:00
7:53 AM,39.0,33.1,79,30.28,10.0,South,5.8,-,N/A,,Overcast,180,2012-10-07 12:53:00
8:53 AM,39.9,33.1,77,30.29,10.0,SSW,10.4,-,N/A,,Overcast,200,2012-10-07 13:53:00
9:35 AM,39.2,32.0,75,30.28,10.0,SSW,11.5,-,N/A,,Mostly Cloudy,200,2012-10-07 14:35:00
9:53 AM,41.0,32.0,70,30.29,10.0,SSW,11.5,-,N/A,,Mostly Cloudy,200,2012-10-07 14:53:00
10:03 AM,42.8,32.0,66,30.29,10.0,SSW,11.5,-,N/A,,Overcast,200,2012-10-07 15:03:00
10:53 AM,44.1,32.0,63,30.27,10.0,SSW,9.2,-,N/A,,Overcast,210,2012-10-07 15:53:00
11:53 AM,45.0,32.0,60,30.26,10.0,SW,10.4,-,N/A,,Overcast,220,2012-10-07 16:53:00
12:08 PM,46.4,30.2,53,30.26,10.0,SSW,12.7,-,N/A,,Overcast,200,2012-10-07 17:08:00
12:53 PM,46.9,30.9,54,30.24,10.0,South,12.7,-,N/A,,Overcast,180,2012-10-07 17:53:00
1:53 PM,46.9,30.9,54,30.22,10.0,SSW,11.5,17.3,N/A,,Overcast,210,2012-10-07 18:53:00
2:53 PM,50.0,30.9,48,30.18,10.0,SSW,15.0,18.4,N/A,,Overcast,200,2012-10-07 19:53:00
3:53 PM,50.0,30.9,48,30.15,10.0,SSW,6.9,17.3,N/A,,Mostly Cloudy,200,2012-10-07 20:53:00
4:53 PM,52.0,30.9,45,30.13,10.0,SSW,13.8,-,N/A,,Mostly Cloudy,210,2012-10-07 21:53:00
5:53 PM,52.0,30.9,45,30.12,10.0,SSW,11.5,-,N/A,,Partly Cloudy,200,2012-10-07 22:53:00
6:53 PM,50.0,30.9,48,30.11,10.0,South,11.5,-,N/A,,Clear,190,2012-10-07 23:53:00
7:53 PM,45.0,30.9,58,30.12,10.0,South,8.1,-,N/A,,Clear,180,2012-10-08 00:53:00
8:53 PM,42.1,30.9,65,30.12,10.0,South,8.1,-,N/A,,Clear,180,2012-10-08 01:53:00
9:53 PM,39.0,30.0,70,30.14,10.0,SSW,5.8,-,N/A,,Clear,200,2012-10-08 02:53:00
10:53 PM,37.9,30.0,73,30.15,10.0,SSW,8.1,-,N/A,,Clear,210,2012-10-08 03:53:00
11:53 PM,37.0,30.0,76,30.14,10.0,SSW,9.2,-,N/A,,Clear,210,2012-10-08 04:53:00